ZHONGXING-6C

Last updated on Wed Oct 22 2025 00:02:49 GMT+0000 (Coordinated Universal Time)

1 44067U 19012A 25294.67258229 -.00000328 00000+0 00000+0 0 9999 2 44067 0.0346 30.0010 0006064 41.4099 331.5902 1.00269962 24344
UTC large
Height (km)
Speed (km/s)
/
Latitude / Longitude
Inclination (degrees)
Orbital Period (minutes)
Azimuth
Elevation
Range (km)
Doppler Factor

Next 0 passes for location: London (51.5072 / 0.1276)

Sorry there are no passes over London.